Theta_e
336 338 336 334 334 334 335 334 335 335 334 332 329 327 327 326 326 327 324 321 322 324 325 324 325 326 325 324 324 321 320 317 316 317 317 313 313 314 316 317 318 316 317
334 333 332 332 332 332 332 332 330 330 329 328 328 328 327 326 326 320 320 321 323 323 322 323 324 325 325 326 326 326 324 322 319 318 316 316 314 314 315 315 316 315 316
333 333 331 330 329 328 328 328 329 328 328 327 326 325 323 323 324 320 322 322 321 319 319 323 325 325 323 323 324 325 326 324 321 319 319 319 318 315 314 314 315 315 315
333 331 329 328 328 328 328 327 327 325 325 322 318 317 316 318 318 318 318 316 316 317 321 323 324 323 321 322 324 325 325 325 323 321 321 320 320 320 315 314 315 315 315
332 331 329 329 328 327 327 327 325 321 319 319 318 317 315 314 315 315 316 319 319 319 320 321 322 320 319 319 322 322 325 324 324 324 322 321 321 322 321 318 315 316 315
330 329 329 328 329 328 327 325 322 321 320 317 316 317 319 321 322 322 322 322 322 322 322 322 320 318 317 317 319 321 323 324 324 324 323 321 322 322 323 322 319 316 316
330 330 330 329 327 325 322 319 318 319 321 322 322 323 323 324 324 324 324 324 324 324 324 324 323 323 322 321 319 322 322 323 323 324 323 323 323 323 323 323 322 318 316
332 330 330 329 327 324 321 319 320 322 324 324 324 324 325 324 324 325 325 325 325 325 324 324 324 324 323 323 323 323 323 322 321 321 322 323 322 321 323 324 322 319 317
331 331 330 329 327 325 324 324 324 324 324 325 324 324 324 323 323 324 325 324 325 325 325 324 324 324 323 323 324 322 322 320 321 320 321 322 320 320 321 322 321 317 316
332 331 331 329 327 326 326 325 325 326 325 326 323 322 324 323 322 322 322 324 323 323 324 323 323 323 323 322 323 323 323 318 317 318 319 322 322 321 320 321 321 318 315
331 331 330 329 328 328 328 328 327 326 324 324 324 322 322 322 323 322 322 323 323 324 325 324 323 323 323 322 322 322 321 321 322 323 323 322 321 320 320 321 319 318 317
333 332 330 329 328 328 327 326 325 326 324 324 324 323 323 323 324 323 324 324 324 324 324 324 324 323 323 324 323 322 322 322 321 320 320 321 320 320 320 321 321 319 317
327 329 329 329 328 326 326 325 324 325 325 324 324 324 323 323 323 321 321 322 323 322 320 322 323 323 324 324 322 321 320 319 319 320 320 320 321 319 320 320 320 319 318
326 326 326 326 326 326 326 326 326 325 325 324 324 324 324 324 323 321 321 321 321 320 318 320 320 320 320 319 318 318 318 319 320 320 320 321 320 320 319 319 320 318 318
326 326 326 326 327 327 327 328 327 325 326 327 326 326 325 325 322 322 323 323 322 321 320 320 319 319 318 318 318 319 318 319 320 321 321 321 321 319 318 317 317 317 317
328 327 327 327 328 328 327 326 325 322 322 321 322 324 323 323 322 323 323 323 322 321 318 318 317 317 316 317 319 319 319 321 321 320 320 319 317 317 317 318 317 316 315
330 329 329 328 328 328 326 325 322 320 320 322 323 324 324 323 322 322 322 322 321 315 314 314 316 318 318 319 321 320 320 320 320 320 319 318 317 316 316 315 314 313 312
331 330 330 329 329 328 327 323 321 321 322 323 324 324 324 323 322 324 324 324 320 317 317 319 320 320 320 321 320 320 320 319 319 318 318 316 316 317 315 312 312 311 310
330 331 330 329 329 328 327 325 324 323 324 324 324 324 324 323 324 325 325 324 322 321 321 321 322 322 321 320 319 319 318 319 319 317 316 316 316 313 311 310 309 308 307
330 329 329 328 327 327 327 326 325 324 324 323 323 323 323 323 324 325 324 323 323 322 324 322 321 319 316 315 314 315 317 317 317 316 315 312 308 305 304 302 301 302 302
331 329 329 329 329 328 326 326 324 323 323 323 324 324 324 325 324 324 324 323 323 323 323 321 312 311 311 312 312 313 314 314 315 315 311 309 303 300 300 299 299 299 299
330 330 330 330 329 327 324 324 323 323 324 324 325 324 324 324 323 324 323 322 321 321 320 314 312 311 311 313 312 311 312 313 313 313 309 303 300 300 300 300 299 299 299
330 331 331 328 327 324 324 323 322 324 325 325 325 324 324 324 324 322 323 322 321 320 315 313 313 311 309 310 312 312 312 311 312 312 306 301 301 302 304 304 302 300 299
330 329 329 326 324 324 324 323 323 324 325 325 325 324 324 323 322 321 319 319 319 314 314 312 311 309 309 309 309 308 307 309 310 307 301 301 302 303 304 302 299 298 299
326 325 325 325 325 325 324 323 324 325 325 324 325 324 324 322 319 317 315 314 312 312 310 309 308 307 307 308 308 306 306 307 305 301 300 301 302 302 300 298 298 299 298
326 324 324 324 324 324 324 324 324 325 325 324 325 324 322 320 317 314 313 311 311 310 308 308 307 306 305 304 304 304 305 303 301 300 300 302 302 299 297 297 297 297 298
Wind_Speed
12 18 15 16 15 13 12 13 12 10 9 9 10 10 9 8 6 5 6 6 7 6 6 5 6 6 6 5 4 6 8 6 4 5 5 9 10 11 8 7 9 13 11
20 18 17 15 14 14 12 11 9 9 9 8 7 7 7 6 6 7 7 6 6 5 3 4 4 4 4 4 3 4 3 3 0 1 5 10 13 11 10 9 9 9 12
15 16 17 14 14 12 10 9 7 5 6 7 5 4 4 6 9 8 7 5 4 2 1 1 2 3 4 4 4 6 6 4 5 5 7 12 13 14 13 12 12 14 14
16 14 13 12 10 10 9 6 5 7 5 5 5 6 7 8 7 5 3 2 1 2 2 4 4 4 6 6 7 7 8 9 11 11 12 15 14 17 14 17 21 20 20
13 11 12 11 11 9 7 6 8 8 7 6 6 6 5 4 3 2 3 2 3 5 6 8 8 8 9 10 11 11 10 12 12 12 14 17 20 20 21 16 21 23 25
12 11 11 11 10 9 11 10 9 8 7 6 6 4 3 2 2 3 5 5 7 9 10 10 11 11 10 10 10 11 11 13 15 16 17 18 23 22 24 22 21 19 7
13 14 13 12 12 11 11 10 11 9 7 6 5 5 4 5 4 5 7 11 13 14 16 16 15 14 12 13 13 13 12 13 17 20 23 26 26 26 25 26 27 23 24
13 13 13 12 13 12 12 12 11 10 9 6 8 8 10 10 9 10 12 15 18 18 18 19 20 19 17 16 15 16 16 16 14 16 19 21 23 24 25 25 26 26 29
16 15 15 15 14 12 12 11 10 9 10 11 11 10 12 11 9 10 11 15 17 19 18 19 19 21 21 19 18 18 18 19 19 19 20 21 23 25 26 25 29 19 17
17 17 15 13 12 11 9 9 10 12 15 13 13 11 10 12 12 14 14 16 18 21 20 20 18 19 19 18 18 19 20 25 24 26 26 27 29 31 30 28 28 25 18
15 13 14 12 12 11 12 14 14 12 10 12 13 13 14 15 16 15 15 17 20 21 22 23 22 22 20 18 18 21 24 26 29 30 31 34 34 33 31 30 26 23 23
14 16 16 14 14 13 12 11 12 13 14 15 16 18 19 19 18 17 15 16 16 18 21 22 23 22 22 22 23 25 25 26 26 28 28 32 33 32 28 28 25 24 24
11 14 15 15 15 14 12 11 13 14 16 19 19 20 23 23 21 19 16 16 17 20 21 22 22 23 24 25 26 26 26 24 24 23 25 26 29 26 24 23 23 23 24
16 16 14 13 13 14 15 16 18 20 20 22 24 26 27 27 25 22 20 18 19 20 20 19 21 22 22 25 27 29 29 24 22 23 24 25 23 18 19 22 18 20 24
18 15 14 14 15 17 18 20 20 24 26 27 29 28 28 28 27 26 27 27 25 25 22 24 25 27 27 26 25 21 22 21 23 18 16 13 16 17 17 18 23 20 15
20 19 17 18 19 19 18 18 20 19 17 16 16 19 23 25 25 26 27 27 27 27 24 27 28 24 23 21 20 18 18 23 20 15 13 14 16 17 18 16 16 16 17
25 22 21 21 21 20 19 18 19 21 20 18 18 18 18 20 22 24 24 26 26 14 21 22 18 19 19 18 15 16 20 18 16 16 16 16 17 14 12 14 13 13 13
24 21 24 25 23 21 19 16 17 19 23 26 25 24 23 22 22 22 18 14 10 10 14 17 19 18 14 14 14 14 16 16 17 19 15 14 13 13 10 10 10 11 12
30 27 27 26 25 22 20 19 20 23 26 29 31 29 25 23 20 13 11 9 10 12 13 14 10 9 11 13 15 17 20 20 16 13 13 14 8 7 10 11 13 16 17
28 24 29 24 22 22 22 22 23 25 27 24 25 24 18 16 12 9 12 13 10 11 9 6 6 8 11 15 17 18 18 13 12 12 8 6 6 6 8 11 14 16 19
26 30 28 27 27 24 23 23 23 24 24 22 20 17 15 15 14 15 11 8 8 6 6 6 7 10 12 13 14 15 14 15 15 12 9 9 6 5 7 11 15 17 17
24 28 28 27 28 25 24 23 23 24 25 24 22 17 13 17 17 12 11 9 8 7 7 7 9 9 12 14 14 15 16 16 15 14 12 7 5 4 9 15 18 20 18
24 27 28 27 26 25 23 24 23 24 26 24 20 20 19 15 13 13 13 11 11 11 10 11 11 12 12 14 16 17 19 19 20 18 15 12 8 6 13 22 24 23 22
25 25 26 26 25 23 23 26 27 27 27 24 24 23 18 16 16 15 14 12 13 12 12 12 13 14 14 14 14 14 16 18 16 12 11 9 10 10 14 18 22 22 21
22 25 25 25 25 25 25 25 27 25 23 21 21 22 23 19 17 17 15 14 14 13 14 14 13 13 13 15 14 16 17 15 11 11 9 9 11 15 16 18 20 20 19
21 19 20 23 25 26 24 26 28 26 23 23 22 24 23 23 23 21 18 17 18 17 15 14 14 11 12 15 16 15 13 12 11 11 11 13 13 15 16 16 16 17 17
Wind_Direction
139 152 156 164 165 161 165 165 159 143 143 144 148 146 143 144 146 151 156 140 119 102 88 86 75 65 64 79 80 103 106 125 162 207 281 341 335 338 353 344 332 340 350
163 151 146 150 144 147 151 144 134 135 136 144 148 150 150 150 145 138 136 137 124 119 98 79 71 51 33 23 350 0 9 16 357 303 313 339 347 349 337 348 344 346 353
152 146 142 139 137 139 140 141 140 159 156 151 155 171 164 149 151 149 144 142 141 107 85 86 3 343 350 344 330 327 318 298 312 290 307 318 330 354 342 350 350 352 351
139 134 129 130 134 150 160 156 162 152 160 157 155 149 139 137 143 153 165 187 201 246 248 271 289 299 310 309 307 309 314 309 301 295 304 311 321 333 337 338 338 342 339
129 129 141 147 159 165 167 171 165 152 145 150 158 157 153 155 161 195 199 247 282 282 281 282 282 286 292 296 300 305 306 312 314 303 302 308 312 318 322 324 318 326 330
145 152 156 160 165 178 170 166 165 157 162 167 172 177 200 198 214 228 248 272 287 286 292 291 287 286 289 285 286 292 291 295 299 293 294 290 293 298 300 303 306 312 318
162 163 169 171 169 166 162 166 172 168 174 187 191 210 220 241 248 260 265 271 276 280 281 282 286 287 286 285 289 294 294 292 289 286 280 282 285 296 302 298 296 298 292
159 169 170 171 174 173 174 180 177 183 200 217 239 251 262 271 279 278 271 269 269 271 272 274 273 280 284 287 294 293 295 306 308 315 300 298 302 307 304 300 294 287 290
172 183 182 187 184 182 188 195 203 221 236 245 255 265 264 274 278 279 274 270 272 273 274 276 274 274 278 279 281 281 287 294 298 307 305 302 306 305 305 296 288 282 285
188 193 196 195 195 199 213 230 243 252 257 263 250 263 274 281 289 285 282 285 286 290 293 287 279 273 276 279 279 283 284 289 300 303 301 295 298 299 300 290 287 263 256
192 195 202 206 213 225 240 244 249 251 248 250 269 279 279 282 290 292 290 288 287 293 291 291 291 294 296 297 294 289 287 296 300 302 300 300 301 300 298 297 294 277 258
202 208 214 221 229 229 225 232 237 247 254 267 278 285 290 297 299 297 294 290 289 284 284 287 285 287 287 285 282 280 286 296 298 300 299 297 299 300 302 301 294 288 282
200 206 215 220 222 227 238 249 259 268 264 268 278 285 292 296 298 298 298 297 290 291 287 282 283 284 282 282 280 282 283 283 285 281 281 287 293 299 300 292 289 288 286
192 198 205 218 237 247 253 258 266 273 272 272 276 279 284 289 292 291 292 293 291 287 291 282 277 276 275 278 281 281 282 280 277 275 279 286 290 294 300 296 284 295 298
207 212 218 229 245 258 267 271 271 274 271 273 277 279 281 286 289 297 300 299 294 287 282 270 272 271 273 277 280 286 289 279 275 280 275 274 283 294 297 295 301 310 294
214 220 228 237 246 257 260 272 276 280 289 287 290 282 289 287 292 297 296 294 293 290 264 260 270 274 275 283 293 298 288 297 290 274 280 285 289 293 294 292 299 301 296
224 231 237 245 252 252 259 268 274 278 289 290 295 294 291 293 295 295 296 296 289 263 254 264 281 292 294 298 300 300 299 298 289 284 298 292 296 288 284 300 306 310 309
230 237 244 250 254 257 262 265 264 269 282 296 301 302 299 301 299 295 294 295 286 263 262 279 294 302 300 299 302 302 300 295 283 290 288 294 295 278 282 298 301 304 304
233 235 237 243 254 260 266 269 275 282 288 292 298 299 299 300 296 298 299 292 283 289 293 297 302 297 296 299 307 309 309 301 292 285 289 287 264 255 279 293 297 303 307
234 241 242 247 251 259 265 273 282 288 291 290 290 292 302 292 272 274 289 286 286 294 294 284 294 298 309 313 312 314 314 311 295 286 266 237 266 292 305 306 309 306 307
231 231 242 247 252 262 272 278 285 286 282 283 286 284 276 257 259 272 276 269 270 266 255 268 293 308 305 304 313 315 314 307 297 261 228 259 262 292 320 322 320 317 314
229 234 242 247 250 261 272 282 285 278 274 269 272 268 242 261 263 255 247 242 240 243 247 261 275 284 294 293 301 301 306 304 300 248 254 258 286 326 334 332 329 325 320
230 238 244 250 251 263 267 272 268 266 266 260 262 268 272 253 229 238 233 229 229 233 242 257 274 289 298 300 297 294 291 293 290 258 246 231 228 272 318 319 317 318 318
236 239 244 252 258 262 266 265 266 263 263 268 280 279 253 229 235 231 227 218 216 233 251 267 272 286 293 294 296 299 299 291 283 248 235 245 290 308 311 306 307 312 315
241 246 251 259 267 270 270 270 266 258 259 272 270 249 227 225 230 221 211 212 225 229 246 260 272 281 286 286 288 295 287 282 259 237 248 268 290 304 305 304 304 310 313
253 259 260 265 269 271 271 271 263 258 263 264 244 226 225 229 220 220 220 221 227 235 243 259 264 275 291 296 301 302 289 266 248 256 269 284 295 303 304 305 308 311 316